Regional Weather Roundup
Issued by NWS

Home | Current Version | Previous Version | Text Only | Print | Product List | Glossary Off
Versions: 1 2 3 4 5 6 7 8 9 10 11 12 13 14 15 16 17 18 19 20 21 22 23 24 25 26 27 28 29 30 31 32 33 34 35 36 37 38 39 40 41 42 43 44 45 46 47 48 49 50

000
ASUS43 KBIS 232002
RWRND

NORTH DAKOTA REGIONAL WEATHER ROUNDUP
NATIONAL WEATHER SERVICE BISMARCK ND
300 PM CDT SAT JUL 23 2016

NOTE: "FAIR" INDICATES FEW OR NO CLOUDS BELOW 12,000 FEET WITH NO
SIGNIFICANT WEATHER AND/OR OBSTRUCTIONS TO VISIBILITY.


NDZ001>003-009>011-017-232100-
NORTHWEST NORTH DAKOTA

CITY           SKY/WX    TMP DP  RH WIND       PRES   REMARKS
WILLISTON      SUNNY     82  49  31 W28G36    29.82F
MINOT          MOSUNNY   84  62  47 W17G24    29.76F
MINOT AFB      SUNNY     79  62  55 W12G23    29.75F
$$

NDZ018>021-031>035-040>046-232100-
SOUTHWEST NORTH DAKOTA

CITY           SKY/WX    TMP DP  RH WIND       PRES   REMARKS
BISMARCK       MOSUNNY   81  66  60 NW15G24   29.80R
DICKINSON      SUNNY     80  45  28 NW17G30   29.87F
GARRISON         N/A     79  64  60 NW15G23   29.80F
HETTINGER ARPT SUNNY     85  44  23 NW22G36   29.91S
$$

NDZ004>008-012>016-024-026-027-054-232100-
NORTHEAST NORTH DAKOTA

CITY           SKY/WX    TMP DP  RH WIND       PRES   REMARKS
GRAND FORKS    CLOUDY    73  67  81 E14       29.68F
GRND FRKS AFB  MOSUNNY   73  73  99 E13       29.69F
DEVILS LAKE    CLOUDY    73  67  81 CALM      29.77R
$$

NDZ022-023-025-028>030-036>039-047>053-232100-
SOUTHEAST NORTH DAKOTA

CITY           SKY/WX    TMP DP  RH WIND       PRES   REMARKS
FARGO          CLOUDY    81  70  69 S14G20    29.73F
JAMESTOWN      CLOUDY    77  69  76 S8        29.76R
$$





USA.gov is the U.S. government's official web portal to all federal, state and local government web resources and services.